Weather History for Taylorville, IL

Change the Weather History Date:

Saturday, November 3, 2012

  Actual Average (KSPI) Record (KSPI)
Temperature  
Mean Temperature 38 °F 49 °F  
Max Temperature 44 °F 59 °F 79 °F (1964)
Min Temperature 30 °F 39 °F 13 °F (1951)
Degree Days  
Heating Degree Days 27 16  
Month to date heating degree days 47  
Since 1 July heating degree days 457  
Cooling Degree Days 0 0  
Month to date cooling degree days 0  
Year to date cooling degree days 1121  
Moisture  
Dew Point 35 °F    
Average Humidity 87    
Maximum Humidity 100    
Minimum Humidity 61    
Precipitation  
Precipitation 0.14 in 0.10 in 1.34 in (2011)
Month to date precipitation 0.31  
Year to date precipitation 32.01  
Snow  
Snow 0.00 in 0.00 in 1.10 in (1967)
Month to date snowfall 0.0  
Since 1 July snowfall T  
Since 1 September snowfall T  
Snow Depth -    
Sea Level Pressure  
Sea Level Pressure 30.12 in    
Wind  
Wind Speed 10 mph (NE)    
Max Wind Speed 18 mph    
Max Gust Speed 31 mph    
Visibility 10 miles    
Events Rain , Thunderstorm    
T = Trace of Precipitation, MM = Missing Value Source: NWS Daily Summary

Daily Weather History Graph

Daily Weather History Graph

Search for Another Location

Airport:

Trip Planner

Search our weather history database for the weather conditions in past years. The results will help you decide how hot, cold, wet, or windy it might be!

Date:

Astronomy

Nov. 03, 2012 Rise Set
Actual Time 7:28 AM CDT 5:52 PM CDT
Civil Twilight 7:00 AM CDT 6:20 PM CDT
Nautical Twilight 6:28 AM CDT 6:52 PM CDT
Astronomical Twilight 5:56 AM CDT 7:24 PM CDT
Moon 9:34 PM CDT (11/3) 11:32 AM CDT (11/3)
Length of Visible Light 11h 20m
Length of Day
10h 24m
Waning Gibbous, 80% of the Moon is Illuminated
Nov 3
Waning Gibbous
Nov 6
Last Quarter
Nov 13
New
Nov 20
First Quarter
Nov 28
Full

Hourly Weather History & Observations

Time (CDT) Temp. Windchill Dew Point Humidity Pressure Visibility Wind Dir Wind Speed Gust Speed Precip Events Conditions
12:15 AM 39.2 °F 35.0 °F 28.4 °F 65% 30.10 in 10.0 mi East 5.8 mph - N/A   Clear
12:35 AM 39.2 °F 33.0 °F 26.6 °F 61% 30.08 in 10.0 mi East 9.2 mph - N/A   Clear
12:55 AM 39.2 °F 33.0 °F 28.4 °F 65% 30.08 in 10.0 mi East 9.2 mph - N/A   Clear
1:15 AM 39.2 °F 32.0 °F 28.4 °F 65% 30.08 in 10.0 mi East 11.5 mph - N/A   Clear
1:35 AM 39.2 °F 32.0 °F 30.2 °F 70% 30.07 in 10.0 mi East 11.5 mph - N/A   Scattered Clouds
1:55 AM 39.2 °F 31.6 °F 30.2 °F 70% 30.06 in 10.0 mi East 12.7 mph - N/A Thunderstorm Mostly Cloudy
2:15 AM 39.2 °F 32.5 °F 32.0 °F 75% 30.08 in 10.0 mi East 10.4 mph - N/A Thunderstorm Mostly Cloudy
2:35 AM 39.2 °F 30.5 °F 33.8 °F 81% 30.06 in 7.0 mi East 16.1 mph - N/A Rain Light Rain
2:55 AM 39.2 °F 32.5 °F 33.8 °F 81% 30.08 in 10.0 mi ENE 10.4 mph 20.7 mph N/A Rain , Thunderstorm Light Thunderstorms and Rain
3:15 AM 37.4 °F 30.3 °F 33.8 °F 87% 30.08 in 10.0 mi East 10.4 mph 21.9 mph N/A Thunderstorm Overcast
3:35 AM 37.4 °F 30.3 °F 33.8 °F 87% 30.09 in 10.0 mi ENE 10.4 mph - 0.02 in Rain Light Rain
3:55 AM 37.4 °F 29.3 °F 35.6 °F 93% 30.07 in 10.0 mi East 12.7 mph - 0.01 in Rain , Thunderstorm Light Thunderstorms and Rain
4:15 AM 37.4 °F 28.9 °F 35.6 °F 93% 30.07 in 10.0 mi East 13.8 mph 19.6 mph 0.02 in Rain , Thunderstorm Light Thunderstorms and Rain
4:35 AM 37.4 °F 27.5 °F 35.6 °F 93% 30.02 in 2.0 mi East 18.4 mph 31.1 mph 0.10 in Rain , Thunderstorm Thunderstorms and Rain
4:55 AM 37.4 °F 30.8 °F 35.6 °F 93% 30.07 in 10.0 mi East 9.2 mph 16.1 mph 0.02 in Rain , Thunderstorm Thunderstorms and Rain
5:15 AM 37.4 °F 29.8 °F 35.6 °F 93% 30.08 in 10.0 mi East 11.5 mph - 0.02 in Rain Light Rain
5:35 AM 37.4 °F 30.3 °F 35.6 °F 93% 30.08 in 10.0 mi East 10.4 mph - 0.02 in   Overcast
5:55 AM 37.4 °F 30.3 °F 37.4 °F 100% 30.08 in 10.0 mi East 10.4 mph - N/A   Overcast
6:15 AM 37.4 °F 31.4 °F 37.4 °F 100% 30.09 in 10.0 mi East 8.1 mph - N/A   Overcast
6:35 AM 37.4 °F 30.8 °F 35.6 °F 93% 30.09 in 10.0 mi East 9.2 mph - N/A   Overcast
6:55 AM 37.4 °F 29.8 °F 35.6 °F 93% 30.09 in 10.0 mi East 11.5 mph - N/A   Overcast
7:15 AM 37.4 °F 30.3 °F 37.4 °F 100% 30.09 in 10.0 mi East 10.4 mph - N/A   Overcast
7:35 AM 37.4 °F 31.4 °F 35.6 °F 93% 30.10 in 10.0 mi ENE 8.1 mph - N/A   Overcast
7:55 AM 37.4 °F 32.1 °F 37.4 °F 100% 30.11 in 10.0 mi ENE 6.9 mph - N/A   Overcast
8:15 AM 37.4 °F 30.8 °F 35.6 °F 93% 30.11 in 10.0 mi East 9.2 mph - N/A   Overcast
8:35 AM 37.4 °F 30.3 °F 35.6 °F 93% 30.11 in 10.0 mi East 10.4 mph - N/A   Overcast
8:55 AM 37.4 °F 30.3 °F 35.6 °F 93% 30.11 in 10.0 mi East 10.4 mph - N/A   Overcast
9:15 AM 37.4 °F 30.8 °F 35.6 °F 93% 30.10 in 10.0 mi East 9.2 mph - N/A   Overcast
9:35 AM 39.2 °F 33.0 °F 37.4 °F 93% 30.11 in 10.0 mi East 9.2 mph - N/A   Overcast
9:55 AM 39.2 °F 33.0 °F 37.4 °F 93% 30.10 in 10.0 mi East 9.2 mph - N/A   Overcast
10:15 AM 39.2 °F 32.5 °F 37.4 °F 93% 30.09 in 10.0 mi East 10.4 mph - N/A   Overcast
10:35 AM 39.2 °F 32.5 °F 37.4 °F 93% 30.09 in 10.0 mi East 10.4 mph - N/A   Overcast
10:55 AM 41.0 °F 34.7 °F 37.4 °F 87% 30.09 in 10.0 mi East 10.4 mph - N/A   Overcast
11:15 AM 41.0 °F 35.2 °F 37.4 °F 87% 30.10 in 10.0 mi ENE 9.2 mph - N/A   Overcast
11:35 AM 41.0 °F 34.7 °F 37.4 °F 87% 30.11 in 10.0 mi NE 10.4 mph - N/A   Overcast
11:55 AM 41.0 °F 34.7 °F 37.4 °F 87% 30.10 in 10.0 mi NE 10.4 mph - N/A   Overcast
12:15 PM 42.8 °F 37.0 °F 37.4 °F 81% 30.10 in 10.0 mi NE 10.4 mph - N/A   Overcast
12:35 PM 42.8 °F 36.2 °F 37.4 °F 81% 30.10 in 10.0 mi NE 12.7 mph - N/A   Overcast
12:55 PM 42.8 °F 35.8 °F 37.4 °F 81% 30.10 in 10.0 mi NNE 13.8 mph - N/A   Mostly Cloudy
1:15 PM 42.8 °F 36.6 °F 37.4 °F 81% 30.10 in 10.0 mi NE 11.5 mph - N/A   Mostly Cloudy
1:35 PM 42.8 °F 36.6 °F 37.4 °F 81% 30.10 in 10.0 mi NNE 11.5 mph - N/A   Overcast
1:55 PM 42.8 °F 36.2 °F 37.4 °F 81% 30.10 in 10.0 mi NNE 12.7 mph 18.4 mph N/A   Mostly Cloudy
2:15 PM 42.8 °F 35.8 °F 37.4 °F 81% 30.10 in 10.0 mi NNE 13.8 mph - N/A   Mostly Cloudy
2:35 PM 42.8 °F 36.2 °F 37.4 °F 81% 30.10 in 10.0 mi NE 12.7 mph 19.6 mph N/A   Mostly Cloudy
2:55 PM 44.6 °F 38.1 °F 37.4 °F 76% 30.10 in 10.0 mi NE 13.8 mph - N/A   Mostly Cloudy
3:15 PM 44.6 °F 37.8 °F 37.4 °F 76% 30.11 in 10.0 mi NE 15.0 mph - N/A   Overcast
3:35 PM 42.8 °F 36.6 °F 37.4 °F 81% 30.11 in 10.0 mi NNE 11.5 mph 17.3 mph N/A   Overcast
3:55 PM 42.8 °F 37.0 °F 37.4 °F 81% 30.12 in 10.0 mi NE 10.4 mph - N/A   Overcast
4:15 PM 42.8 °F 37.0 °F 37.4 °F 81% 30.12 in 10.0 mi NE 10.4 mph - N/A   Overcast
4:35 PM 42.8 °F 38.0 °F 37.4 °F 81% 30.12 in 10.0 mi NE 8.1 mph - N/A   Overcast
4:55 PM 42.8 °F 36.6 °F 37.4 °F 81% 30.13 in 10.0 mi NE 11.5 mph - N/A   Overcast
5:15 PM 42.8 °F 37.0 °F 35.6 °F 76% 30.14 in 10.0 mi NE 10.4 mph - N/A   Overcast
5:35 PM 41.0 °F 35.8 °F 35.6 °F 81% 30.14 in 10.0 mi NE 8.1 mph - N/A   Overcast
5:55 PM 41.0 °F 35.8 °F 35.6 °F 81% 30.14 in 10.0 mi NE 8.1 mph - N/A   Overcast
6:15 PM 39.2 °F 35.0 °F 35.6 °F 87% 30.15 in 10.0 mi NNE 5.8 mph - N/A   Mostly Cloudy
6:35 PM 39.2 °F 33.6 °F 37.4 °F 93% 30.16 in 10.0 mi North 8.1 mph - N/A   Mostly Cloudy
6:55 PM 39.2 °F 33.6 °F 37.4 °F 93% 30.16 in 10.0 mi North 8.1 mph - N/A   Mostly Cloudy
7:15 PM 37.4 °F 32.8 °F 35.6 °F 93% 30.16 in 10.0 mi North 5.8 mph - N/A   Scattered Clouds
7:35 PM 37.4 °F 32.8 °F 35.6 °F 93% 30.16 in 10.0 mi NNE 5.8 mph - N/A   Scattered Clouds
7:55 PM 37.4 °F 32.1 °F 35.6 °F 93% 30.16 in 10.0 mi North 6.9 mph - N/A   Clear
8:15 PM 35.6 °F 29.9 °F 35.6 °F 100% 30.16 in 10.0 mi North 6.9 mph - N/A   Clear
8:35 PM 35.6 °F 31.7 °F 33.8 °F 93% 30.17 in 10.0 mi North 4.6 mph - N/A   Clear
8:55 PM 35.6 °F 29.9 °F 33.8 °F 93% 30.17 in 10.0 mi NNE 6.9 mph - N/A   Clear
9:15 PM 35.6 °F 30.7 °F 33.8 °F 93% 30.18 in 10.0 mi NNE 5.8 mph - N/A   Clear
9:35 PM 33.8 °F 29.6 °F 32.0 °F 93% 30.19 in 10.0 mi North 4.6 mph - N/A   Clear
9:55 PM 33.8 °F 29.6 °F 32.0 °F 93% 30.19 in 10.0 mi North 4.6 mph - N/A   Clear
10:15 PM 33.8 °F 28.6 °F 32.0 °F 93% 30.19 in 10.0 mi NNE 5.8 mph - N/A   Clear
10:35 PM 33.8 °F 29.6 °F 32.0 °F 93% 30.19 in 10.0 mi NNE 4.6 mph - N/A   Clear
10:55 PM 33.8 °F 30.8 °F 32.0 °F 93% 30.19 in 10.0 mi NNE 3.5 mph - N/A   Clear
11:15 PM 32.0 °F 28.7 °F 32.0 °F 100% 30.19 in 10.0 mi NNE 3.5 mph - N/A   Clear
11:35 PM 32.0 °F 28.7 °F 30.2 °F 93% 30.19 in 10.0 mi North 3.5 mph - N/A   Clear
11:55 PM 30.2 °F 26.7 °F 30.2 °F 100% 30.20 in 7.0 mi North 3.5 mph - N/A   Clear